Flag for U.S.A. Weather past 2 weeks in Everett, Washington, U.S.A.

Now
56 °F

Mostly cloudy.


Feels Like: 54 °F
Forecast: 54 / 68 °F
Wind: 8 mph from North

Location: Snohomish County Airport

Current Time: Sep 2, 2014 at 7:45:34 PM

Latest Report: Sep 2, 2014 at 7:03 PM


Visibility: 10 mi

Pressure: 29.83 "Hg

Humidity: 90%

Dew point: 53 °F

Location of EverettLocation

Historic Weather in Everett — Graph

°F

Everett temperature yesterday

Maximum temperature yesterday: 70 °F (at 4:53 PM)
Minimum temperature yesterday: 58 °F (at 2:53 AM)
Average temperature yesterday: 62 °F

Past Weeks' High & Low Weather Summary

 TemperatureHumidityPressure
High82 °F (Aug 26, 2:53 PM)96% (Aug 22, 6:53 AM)30.16 "Hg (Aug 22, 6:53 AM)
Low53 °F (Aug 22, 6:53 AM)36% (Aug 26, 6:53 PM)29.79 "Hg (Aug 19, 6:53 PM)
Average64 °F73%30.00 "Hg
* Reported Aug 18 6:53 PM — Sep 2 6:01 PM, Everett, Weather by CustomWeather, © 2014

Note: Actual official high and low records may vary slightly from our data, if they occured in-between our weather recording intervals... More about our weather records

Advertising

Everett weather history for previous 24 hours

 ConditionsComfort  
Time TempWeatherWind HumidityBarometerVisibility
6:01 PM
Sep 2
55 °FHeavy rain. Fog.7 mph93%29.82 "Hg3 mi
5:53 PM58 °FLight rain. Fog.12 mph90%29.81 "Hg5 mi
4:53 PM64 °FMostly cloudy.20 mph68%29.79 "Hg10 mi
3:53 PM65 °FMostly cloudy.17 mph70%29.80 "Hg10 mi
2:53 PM61 °FLight rain. Mostly cloudy.12 mph83%29.84 "Hg5 mi
1:53 PM64 °FMostly cloudy.13 mph70%29.86 "Hg10 mi
12:53 PM64 °FMostly cloudy.9 mph68%29.88 "Hg10 mi
11:53 AM61 °FMostly cloudy.No wind75%29.90 "Hg10 mi
10:53 AM60 °FMostly cloudy.3 mph78%29.92 "Hg10 mi
9:53 AM59 °FBroken clouds.3 mph78%29.92 "Hg10 mi
8:53 AM57 °FMore clouds than sun.6 mph83%29.94 "Hg10 mi
7:53 AM57 °FMostly cloudy.3 mph83%29.95 "Hg10 mi
6:53 AM56 °FMostly cloudy.5 mph90%29.95 "Hg10 mi
5:53 AM56 °FOvercast.8 mph90%29.96 "Hg10 mi
4:53 AM57 °FMostly cloudy.6 mph87%29.95 "Hg10 mi
3:53 AM59 °FOvercast.7 mph81%29.96 "Hg10 mi
2:53 AM58 °FOvercast.9 mph87%29.97 "Hg10 mi
1:53 AM58 °FOvercast.10 mph87%29.98 "Hg10 mi
12:53 AM58 °FOvercast.10 mph90%29.99 "Hg10 mi
11:53 PM
Sep 1
59 °FLow clouds.8 mph90%29.99 "Hg10 mi
10:53 PM59 °FMostly cloudy.8 mph90%30.00 "Hg10 mi
9:53 PM60 °FMostly cloudy.9 mph83%30.01 "Hg10 mi
8:53 PM61 °FPassing clouds.6 mph78%30.00 "Hg10 mi
7:53 PM62 °FPartly sunny.7 mph73%30.00 "Hg10 mi
Weather by CustomWeather, © 2014

See weather overviewHow to use our weather pages